This is the latest recevied weather packets stored in our database for station/object VE3TEJ. If no packets are shown the sender has not sent any weather packets the latest 10 day(s).
| Time | Temp. | Humidity | Pressure | Rain* | Wind** | Luminosity | Snow |
|---|---|---|---|---|---|---|---|
| 1777837749 | 15° C | 39% | 1008.1 hPa | 0 mm | - | - | - |
| 1777837448 | 15° C | 40% | 1008.2 hPa | 0 mm | - | - | - |
| 1777837149 | 15° C | 40% | 1008.4 hPa | 0 mm | - | - | - |
| 1777836848 | 15° C | 41% | 1008.4 hPa | 0 mm | - | - | - |
| 1777836548 | 15° C | 41% | 1008.6 hPa | 0 mm | - | - | - |
| 1777836249 | 14.44° C | 40% | 1008.4 hPa | 0 mm | - | - | - |
| 1777835948 | 15° C | 42% | 1008.5 hPa | 0 mm | - | - | - |
| 1777835648 | 15° C | 41% | 1008.7 hPa | 0 mm | - | - | - |
| 1777835347 | 15° C | 42% | 1008.8 hPa | 0 mm | - | - | - |
| 1777835047 | 14.44° C | 45% | 1008.7 hPa | 0 mm | - | - | - |
| 1777834748 | 14.44° C | 46% | 1009 hPa | 0 mm | - | - | - |
| 1777834448 | 14.44° C | 46% | 1009.1 hPa | 0 mm | - | - | - |
| 1777834147 | 14.44° C | 44% | 1009.2 hPa | 0 mm | - | - | - |
| 1777833847 | 15.56° C | 42% | 1009 hPa | 0 mm | - | - | - |
| 1777833549 | 15.56° C | 41% | 1008.9 hPa | 0 mm | - | - | - |
| 1777833248 | 15.56° C | 42% | 1008.8 hPa | 0 mm | - | - | - |
| 1777832948 | 15° C | 41% | 1009 hPa | 0 mm | - | - | - |
| 1777832647 | 15° C | 40% | 1009.1 hPa | 0 mm | - | - | - |
| 1777832349 | 15° C | 40% | 1008.9 hPa | 0 mm | - | - | - |
| 1777832049 | 15° C | 42% | 1009.1 hPa | 0 mm | - | - | - |
| 1777831748 | 15° C | 39% | 1009.1 hPa | 0 mm | - | - | - |
| 1777831448 | 15° C | 39% | 1009.3 hPa | 0 mm | - | - | - |
| 1777831147 | 15.56° C | 39% | 1009 hPa | 0 mm | - | - | - |
| 1777830847 | 16.11° C | 39% | 1008.9 hPa | 0 mm | - | - | - |
| 1777830549 | 16.67° C | 37% | 1009.1 hPa | 0 mm | - | - | - |
* Rain latest hour (hover to see other rain measurements)
** Current wind speed in m/s (hover to see current wind gust speed)